Location: NJAA Observatory
(40.6819°N, 74.8979°W)
Time: 21:40:50
(UTC-04:00)

Iridium 56 - Visible Passes

Search period start: 26 May 2015 00:00
Search period end: 05 June 2015 00:00
Orbit: 776 x 779 km, 86.4° (Epoch: 26 May)

Date Brightness Start Highest point End Pass type
(mag) Time Alt. Az. Time Alt. Az. Time Alt. Az.
26 May 8.2 03:54:44 10° ESE 03:57:40 16° E 04:00:48 10° NE visible
27 May 5.8 04:59:12 10° S 05:04:23 76° E 05:09:38 10° N visible
28 May 6.9 04:26:08 10° SSE 04:30:57 41° E 04:35:51 10° NNE visible
29 May 7.8 03:53:42 10° SE 03:57:37 23° E 04:01:41 10° NNE visible
30 May 8.3 03:22:31 10° E 03:24:22 12° ENE 03:26:31 10° NE visible
31 May 6.1 04:25:54 10° SSE 04:31:00 60° E 04:36:09 10° N visible
01 Jun 7.2 03:53:04 10° SE 03:57:36 32° E 04:02:14 10° NNE visible
02 Jun 8.0 03:20:59 10° ESE 03:24:18 18° E 03:27:49 10° NE visible
03 Jun 5.6 04:25:53 10° S 04:31:05 86° E 04:36:20 10° N visible
04 Jun 6.5 03:52:41 10° SSE 03:57:38 46° E 04:02:38 10° NNE visible
